Location: Allonne
(49.4086°N, 2.1143°E)
Time: 08:01:40
(UTC+00:00)

Cosmos 2360 Rocket - Pass Details

Date: 03 February 2023
Orbit: 832 x 846 km, 71.0° (Epoch: 30 March)

Event Time Altitude Azimuth Distance (km) Brightness Sun altitude
Rises 19:46:14 0° 231° (SW) 3,380 5.9 -28.7°
Reaches altitude 10° 19:48:48 10° 239° (WSW) 2,451 5.2 -29.1°
Maximum altitude 19:54:05 41° 309° (NW) 1,216 3.3 -30.0°
Enters shadow 19:56:46 25° 1° (N) 1,630 3.7 -30.4°
